This is the latest recevied weather packets stored in our database for station/object K7MT-WX. If no packets are shown the sender has not sent any weather packets the latest 1 day(s).
| Time | Temp. | Humidity | Pressure | Rain* | Wind** | Luminosity | Snow |
|---|---|---|---|---|---|---|---|
| 1778014151 | 10° C | 48% | 1017.5 hPa | 0 mm | 3.58 m/s, 187° | - | - |
| 1778013251 | 10.56° C | 43% | 1017.4 hPa | 0 mm | 3.58 m/s, 211° | - | - |
| 1778012351 | 10° C | 40% | 1017.4 hPa | 0 mm | 3.13 m/s, 192° | - | - |
| 1778011451 | 10.56° C | 39% | 1017.3 hPa | 0 mm | 3.13 m/s, 150° | - | - |
| 1778010551 | 10.56° C | 38% | 1017.5 hPa | 0 mm | 4.47 m/s, 149° | - | - |
| 1778009651 | 11.11° C | 38% | 1017.6 hPa | 0 mm | 2.24 m/s, 221° | - | - |
| 1778008751 | 10° C | 41% | 1017.6 hPa | 0 mm | 2.24 m/s, 195° | - | - |
| 1778007851 | 11.11° C | 40% | 1017.6 hPa | 0 mm | 1.34 m/s, 218° | - | - |
| 1778006951 | 10.56° C | 42% | 1017.6 hPa | 0 mm | 1.34 m/s, 223° | - | - |
| 1778006051 | 10.56° C | 42% | 1017.6 hPa | 0 mm | 2.24 m/s, 229° | - | - |
| 1778005151 | 10° C | 40% | 1017.7 hPa | 0 mm | 2.68 m/s, 156° | - | - |
| 1778004251 | 10° C | 42% | 1017.6 hPa | 0 mm | 0.89 m/s, 221° | - | - |
| 1778003351 | 10° C | 42% | 1017.6 hPa | 0 mm | 2.24 m/s, 201° | - | - |
| 1778002451 | 10° C | 45% | 1017.6 hPa | 0 mm | 0.89 m/s, 230° | - | - |
| 1778001551 | 8.89° C | 44% | 1017.6 hPa | 0 mm | 2.24 m/s, 222° | - | - |
| 1778000651 | 8.33° C | 45% | 1017.9 hPa | 0 mm | 1.34 m/s, 223° | - | - |
| 1777999751 | 7.78° C | 47% | 1018 hPa | 0 mm | 0.45 m/s, 239° | - | - |
| 1777998851 | 7.78° C | 48% | 1017.9 hPa | 0 mm | 1.34 m/s, 114° | - | - |
| 1777997951 | 7.78° C | 47% | 1017.9 hPa | 0 mm | 0.89 m/s, 129° | - | - |
| 1777997051 | 7.22° C | 49% | 1018 hPa | 0 mm | 0 m/s | - | - |
| 1777996151 | 7.22° C | 48% | 1018 hPa | 0 mm | 0.89 m/s, 187° | - | - |
| 1777995251 | 7.22° C | 52% | 1018 hPa | 0 mm | 0.89 m/s, 203° | - | - |
| 1777994351 | 6.11° C | 53% | 1018 hPa | 0 mm | 0.45 m/s, 142° | - | - |
| 1777993451 | 5.56° C | 56% | 1018.1 hPa | 0 mm | 0.89 m/s, 177° | - | - |
| 1777992551 | 5° C | 59% | 1018 hPa | 0 mm | 0.45 m/s, 99° | - | - |
* Rain latest hour (hover to see other rain measurements)
** Current wind speed in m/s (hover to see current wind gust speed)